Погода в Тиндуфе

Алжир     27°40′30″N   8°09′07″W
темп.,
°C
ветер,
м/с
пор.,
м/с
влажн.,
%
обл.,
%
осадки,
мм/ч
давл.,
гПа
погр.,
м
16 июня, ср
ср1601:00+27сз91420100 0.1 1013226
04:00+26зсз71321100 0.1 1012267
07:00+23зсз81429100 0.1 1012246
10:00+28зсз81118100 0.0 1012494
13:00+33зсз10121299 0.0 1011777
16:00+34зсз891277 0.0 10111249
19:00+32зсз781654 0.0 10111297
22:00+25зсз10132965 0.0 1012395
17 июня, чт
чт1701:00+20зсз914460 0.0 1012284
04:00+19зсз712530 0.0 1011225
07:00+18зсз711560 0.0 1011203
10:00+25зсз56280 0.0 1012473
13:00+32зсз66120 0.0 10111280
16:00+35з78110 0.0 10091845
19:00+32з1010160 0.0 10091654
22:00+24зсз1013360 0.0 1012495
18 июня, пт
пт1801:00+18з1016660 0.0 1012345
04:00+17зсз915710 0.0 1010282
07:00+17зсз814700 0.0 1010266
10:00+24зсз910370 0.0 1011535
13:00+32зсз88190 0.0 10091187
16:00+34зсз1010141 0.0 10081663
19:00+28зсз1111221 0.0 10091107
22:00+21з101545100 0.0 1011452
19 июня, сб
сб1901:00+17з1015582 0.0 1011340
04:00+15зсз915640 0.0 1010290
07:00+15зсз915700 0.0 1011286
10:00+22зсз1011370 0.0 1012502
13:00+30зсз1011140 0.0 10101078
16:00+32зсз1011120 0.0 10091436
19:00+27зсз1213220 0.0 10101057
22:00+19з11165511 0.0 1013536
20 июня, вс
вс2001:00+16з1016740 0.0 1013422
04:00+16зсз914750 0.0 1011337
07:00+15з814801 0.0 1012295
10:00+23зсз89431 0.0 1012601
13:00+30зсз66211 0.0 10111236
16:00+34з77140 0.0 10091752
19:00+30з109220 0.0 1009861
22:00+21з1013510 0.0 1011317